[[{"header":{"parameterUnit":"m.s-1","parameterCategory":1,"la1":30.2991,"la2":30.254,"lo1":-89.0895,"lo2":-89.0444,"dy":0.0017,"dx":0.0017,"nx":28,"ny":28,"refTime":"2025-02-07T09:00:00:Z","depth":0,"parameterNumber":2,"parameterNumberName":"U-component_of_WINDS"},"data":[0,0,0,0,0,0,0,0,0,0,0,0,0,0,0,0,0,0,0,0,0,0,0,0,0,0,0,0,0,0,0,0,0,0,0,0,0,0,0,0,0,0,0,0,0,0,0,0,0,0,0,0,0,0,0,0,0,0,-0.5403,-0.5403,0,-0.5401,-0.5401,-0.5401,-0.5407,-0.5407,-0.5408,-0.5408,-0.5405,-0.5405,-0.5404,0,0,0,0,0,0,0,0,0,0,0,0,0,-0.5411,-0.5411,-0.5403,-0.5403,-0.5403,-0.5401,-0.5401,-0.5401,-0.5407,-0.5407,-0.5408,-0.5408,-0.5405,-0.5405,-0.5404,0,0,0,0,0,0,0,0,0,0,0,0,0,-0.5408,-0.5411,-0.5403,-0.5406,-0.5406,-0.5401,-0.5401,-0.5401,-0.5407,-0.5407,-0.5408,-0.5408,-0.5405,-0.5405,-0.5404,-0.5396,0,0,-0.5403,-0.5403,0,0,0,0,0,0,0,0,-0.5408,-0.5408,-0.5405,-0.5406,-0.5406,-0.5405,-0.5403,-0.5399,-0.5407,-0.5407,-0.5408,-0.5408,-0.5404,-0.5404,-0.5403,-0.5396,-0.5396,-0.5403,-0.5403,-0.5403,-0.5403,0,0,0,0,0,0,0,-0.5408,-0.5408,-0.5402,-0.5405,-0.5406,-0.5407,-0.5407,-0.5402,-0.5404,-0.5407,-0.5407,-0.5407,-0.5405,-0.5404,-0.5403,-0.5396,-0.5403,-0.5403,-0.5402,-0.5402,-0.5382,-0.5382,0,0,0,0,0,0,-0.5408,-0.5408,-0.5402,-0.5402,-0.5408,-0.5406,-0.5406,-0.5405,-0.5404,-0.5404,-0.5407,-0.5407,-0.5404,-0.5404,-0.5403,-0.5393,-0.5403,-0.5402,-0.5402,-0.5382,-0.5382,-0.5382,0,0,0,0,0,0,-0.5408,-0.5408,-0.5402,-0.5405,-0.5405,-0.5406,-0.5404,-0.5405,-0.5403,-0.5404,-0.5404,-0.5405,-0.5404,-0.5404,-0.5398,-0.5393,-0.5402,-0.5402,-0.5383,-0.5382,-0.5382,-0.5374,0,0,0,0,0,0,-0.5409,-0.5408,-0.5405,-0.5405,-0.5404,-0.5397,-0.5404,-0.5404,-0.5403,-0.5404,-0.5403,-0.5403,-0.5404,-0.5398,-0.5398,-0.5393,-0.5401,-0.5383,-0.5383,-0.5382,-0.5375,-0.5374,-0.5372,0,0,0,0,0,-0.5409,-0.5403,-0.5405,-0.5404,-0.5401,-0.5397,-0.5397,-0.5399,-0.5403,-0.54,-0.54,-0.5403,-0.5394,-0.5398,-0.5397,-0.5392,-0.5383,-0.5383,-0.5382,-0.5375,-0.5374,-0.5372,0,0,0,0,0,0,-0.5401,-0.5403,-0.5405,-0.5399,-0.5398,-0.5398,-0.5394,-0.5397,-0.5395,-0.5396,-0.5398,-0.5398,-0.5392,-0.5392,-0.5396,-0.5384,-0.5389,-0.5388,-0.5385,-0.5383,-0.5382,-0.5382,-0.5401,0,0,0,0,0,-0.5399,-0.5396,-0.5397,-0.5392,-0.5391,-0.5393,-0.5391,-0.5393,-0.5392,-0.5392,-0.5392,-0.5391,-0.5388,-0.5385,-0.5383,-0.5375,-0.5375,-0.5371,-0.537,-0.5369,-0.5368,-0.5364,-0.5362,-0.5379,-0.5379,-0.5379,0,0,-0.5394,-0.5395,-0.5392,-0.539,-0.539,-0.5386,-0.5393,-0.5389,-0.5386,-0.5391,-0.5386,-0.5386,-0.5385,-0.5378,-0.5375,-0.5377,-0.5364,-0.5368,-0.5368,-0.5367,-0.5363,-0.5361,-0.536,-0.5379,-0.5379,-0.5379,0,0,-0.5383,-0.5383,-0.5379,-0.5378,-0.5378,-0.5379,-0.5378,-0.5378,-0.5378,-0.5373,-0.5377,-0.5373,-0.5368,-0.5367,-0.5366,-0.5355,-0.5358,-0.5354,-0.5348,-0.5343,-0.5342,-0.5341,-0.5337,-0.5335,-0.5353,-0.5353,-0.5353,0,-0.5377,-0.5373,-0.5376,-0.5372,-0.537,-0.5375,-0.537,-0.537,-0.5368,-0.5367,-0.537,-0.5364,-0.5363,-0.5356,-0.5354,-0.5352,-0.5351,-0.5354,-0.5342,-0.5341,-0.534,-0.5336,-0.5334,-0.5353,-0.5353,-0.5353,-0.5353,0,-0.5365,-0.5362,-0.5358,-0.5356,-0.5355,-0.535,-0.5352,-0.535,-0.5353,-0.5353,-0.5348,-0.5348,-0.5345,-0.5344,-0.5345,-0.5337,-0.5338,-0.5342,-0.5347,-0.5338,-0.5334,-0.5332,-0.5352,-0.5352,-0.5352,-0.5353,0,0,-0.5349,-0.5349,-0.5348,-0.5347,-0.5347,-0.5345,-0.534,-0.5338,-0.5336,-0.5335,-0.5331,-0.5327,-0.533,-0.5329,-0.5331,-0.5327,-0.5318,-0.5331,-0.5331,-0.5328,-0.5308,-0.5305,-0.5304,-0.532,-0.532,-0.532,-0.5308,0,-0.5338,-0.5331,-0.5333,-0.5326,-0.5323,-0.5328,-0.5324,-0.5323,-0.5324,-0.5321,-0.5322,-0.5319,-0.5323,-0.5323,-0.5319,-0.532,-0.5314,-0.5321,-0.5316,-0.5316,-0.5316,-0.5302,-0.5299,-0.5288,-0.5307,-0.5307,-0.5306,0,-0.5324,-0.5323,-0.5315,-0.5315,-0.5314,-0.5311,-0.5309,-0.5306,-0.5306,-0.5306,-0.5305,-0.5308,-0.5303,-0.5309,-0.5303,-0.5307,-0.5305,-0.5305,-0.5305,-0.5304,-0.531,-0.53,-0.5285,-0.5283,-0.5304,-0.5304,-0.5305,0,-0.5313,-0.5309,-0.5304,-0.5303,-0.5304,-0.5301,-0.5301,-0.5301,-0.5299,-0.5297,-0.5296,-0.5294,-0.5293,-0.5291,-0.5293,-0.5297,-0.5286,-0.5292,-0.5286,-0.5286,-0.5283,-0.5283,-0.5267,-0.5283,-0.5283,-0.5283,-0.5283,0,-0.53,-0.5295,-0.5298,-0.5295,-0.529,-0.5293,-0.5287,-0.5288,-0.5288,-0.5284,-0.5288,-0.5285,-0.5288,-0.5285,-0.5287,-0.5281,-0.5281,-0.5281,-0.5281,-0.528,-0.528,-0.5279,-0.5279,-0.5283,-0.5283,-0.5283,-0.5283,0,-0.5286,-0.5288,-0.5283,-0.5284,-0.5284,-0.528,-0.5281,-0.5278,-0.5279,-0.5275,-0.5274,-0.5276,-0.5273,-0.5274,-0.5271,-0.5272,-0.5265,-0.5266,-0.5265,-0.5265,-0.5259,-0.526,-0.5241,-0.5239,-0.5257,-0.5257,-0.5256,0,-0.5277,-0.5274,-0.5274,-0.5273,-0.5272,-0.527,-0.5268,-0.5271,-0.527,-0.5269,-0.5266,-0.5263,-0.5261,-0.5255,-0.5256,-0.5253,-0.5255,-0.5248,-0.5254,-0.5253,-0.5254,-0.5254,-0.5254,-0.5247,-0.5247,-0.5247,-0.5246,0,-0.5262,-0.5263,-0.5261,-0.5259,-0.5257,-0.5256,-0.5255,-0.5254,-0.5257,-0.5255,-0.5251,-0.525,-0.5247,-0.5244,-0.5241,-0.5241,-0.5244,-0.5245,-0.5243,-0.5242,-0.5241,-0.5241,-0.5261,-0.5245,-0.5245,-0.5245,-0.5245,-0.5245,-0.525,-0.5247,-0.5247,-0.5244,-0.5244,-0.5243,-0.524,-0.5241,-0.5239,-0.5237,-0.5239,-0.5235,-0.5234,-0.5232,-0.5231,-0.5228,-0.5231,-0.5229,-0.5228,-0.5227,-0.5226,-0.5242,-0.5228,-0.5228,-0.5228,-0.5228,-0.5228,0,-0.5234,-0.5235,-0.5232,-0.5231,-0.5229,-0.5232,-0.5232,-0.523,-0.5226,-0.5226,-0.5224,-0.522,-0.5217,-0.5218,-0.5215,-0.5213,-0.5214,-0.5212,-0.5212,-0.5212,-0.5224,-0.5226,-0.5211,-0.5211,-0.5211,-0.5211,-0.5211,-0.5211,-0.5226,-0.5221,-0.5222,-0.5217,-0.5217,-0.5214,-0.5213,-0.5212,-0.5211,-0.5207,-0.5205,-0.5206,-0.5206,-0.5203,-0.5201,-0.5201,-0.52,-0.5197,-0.5198,-0.5209,-0.5211,-0.5212,-0.5214,-0.5197,-0.5197,-0.5185,-0.5185,-0.5185]},{"header":{"parameterUnit":"m.s-1","parameterCategory":1,"la1":30.2991,"la2":30.254,"lo1":-89.0895,"lo2":-89.0444,"dy":0.0017,"dx":0.0017,"nx":28,"ny":28,"refTime":"2025-02-07T09:00:00:Z","depth":0,"parameterNumber":3,"parameterNumberName":"V-component_of_WINDS"},"data":[0,0,0,0,0,0,0,0,0,0,0,0,0,0,0,0,0,0,0,0,0,0,0,0,0,0,0,0,0,0,0,0,0,0,0,0,0,0,0,0,0,0,0,0,0,0,0,0,0,0,0,0,0,0,0,0,0,0,2.196,2.1961,0,2.206,2.2061,2.2062,2.2073,2.2072,2.2071,2.207,2.217,2.2174,2.2178,0,0,0,0,0,0,0,0,0,0,0,0,0,2.1776,2.1779,2.196,2.1961,2.1963,2.206,2.2061,2.2063,2.2073,2.2072,2.2071,2.207,2.2169,2.2174,2.2178,0,0,0,0,0,0,0,0,0,0,0,0,0,2.1864,2.178,2.196,2.198,2.1982,2.206,2.2061,2.2063,2.2074,2.2072,2.2071,2.2069,2.2168,2.2173,2.2178,2.2242,0,0,2.2195,2.2197,0,0,0,0,0,0,0,0,2.1859,2.187,2.1975,2.1978,2.1982,2.2053,2.2033,2.2123,2.2074,2.2039,2.207,2.2068,2.2132,2.2141,2.2163,2.2247,2.2251,2.2196,2.2199,2.2201,2.2203,0,0,0,0,0,0,0,2.1852,2.1866,2.2,2.1977,2.1981,2.1983,2.1993,2.205,2.2093,2.2042,2.2043,2.2055,2.2134,2.2157,2.2165,2.2253,2.2195,2.22,2.2204,2.2206,2.2394,2.2396,0,0,0,0,0,0,2.1843,2.1861,2.1996,2.2003,2.1915,2.1987,2.1999,2.2031,2.2092,2.21,2.2056,2.2055,2.2149,2.2159,2.2169,2.2248,2.2201,2.2206,2.2209,2.2392,2.2394,2.2396,0,0,0,0,0,0,2.1839,2.1855,2.1992,2.1932,2.195,2.1992,2.2028,2.2034,2.2058,2.2103,2.211,2.2072,2.2148,2.2161,2.2224,2.2251,2.2209,2.2214,2.239,2.2393,2.2395,2.2406,0,0,0,0,0,0,2.1834,2.1854,2.1879,2.1933,2.1953,2.2047,2.203,2.2037,2.2067,2.2067,2.212,2.2128,2.2148,2.2216,2.2229,2.2258,2.2218,2.2388,2.2391,2.2394,2.2403,2.2408,2.2413,0,0,0,0,0,2.1827,2.1877,2.188,2.1896,2.1986,2.2048,2.206,2.2083,2.207,2.2095,2.2124,2.2126,2.2246,2.2222,2.2237,2.2268,2.2386,2.239,2.2394,2.2401,2.2407,2.2413,0,0,0,0,0,0,2.1825,2.1885,2.1889,2.1958,2.1998,2.205,2.2083,2.2089,2.2133,2.2131,2.2156,2.2168,2.223,2.2255,2.2228,2.2333,2.2315,2.2322,2.2314,2.2321,2.2326,2.2319,2.2222,0,0,0,0,0,2.1833,2.188,2.1929,2.1985,2.2005,2.2041,2.2069,2.2083,2.2125,2.2142,2.2176,2.2216,2.2263,2.2293,2.2338,2.2406,2.2418,2.2435,2.2439,2.2443,2.245,2.2487,2.2495,2.2409,2.2409,2.2409,0,0,2.1849,2.1888,2.1916,2.1986,2.2019,2.2066,2.2055,2.2105,2.2141,2.215,2.2212,2.2237,2.2284,2.235,2.238,2.2372,2.2476,2.2448,2.2451,2.2455,2.2492,2.25,2.2507,2.2412,2.2411,2.2411,0,0,2.1904,2.1937,2.1988,2.2021,2.2071,2.2094,2.2106,2.2157,2.2175,2.2238,2.2245,2.2287,2.2367,2.24,2.2427,2.2493,2.2496,2.2507,2.2532,2.2569,2.2576,2.2582,2.2606,2.2614,2.2512,2.2512,2.2512,0,2.1918,2.199,2.2013,2.2064,2.2094,2.2105,2.2156,2.2187,2.2249,2.2269,2.2259,2.236,2.2392,2.2466,2.2482,2.2503,2.2518,2.2501,2.2573,2.2579,2.2585,2.2608,2.2617,2.2513,2.2513,2.2513,2.2513,0,2.2005,2.2055,2.2089,2.215,2.2184,2.2235,2.2265,2.2296,2.2307,2.2331,2.2394,2.2433,2.2486,2.2504,2.2515,2.2579,2.2573,2.2568,2.255,2.2594,2.2616,2.2625,2.2515,2.2514,2.2514,2.2514,0,0,2.2062,2.2134,2.2147,2.2174,2.223,2.2268,2.2319,2.2372,2.2398,2.244,2.2483,2.255,2.2545,2.2576,2.259,2.2622,2.2672,2.2613,2.2614,2.2623,2.2746,2.275,2.276,2.2674,2.2676,2.2677,2.2742,0,2.2123,2.2215,2.2237,2.2315,2.2361,2.2371,2.2415,2.2453,2.2476,2.2518,2.2543,2.2591,2.2581,2.2599,2.2631,2.2659,2.2697,2.2655,2.2714,2.2716,2.2704,2.2772,2.2777,2.2836,2.2751,2.2752,2.2753,0,2.2208,2.2252,2.2335,2.2384,2.2404,2.2444,2.2494,2.2534,2.2577,2.2591,2.2625,2.2636,2.2688,2.2667,2.2739,2.271,2.2735,2.2752,2.2755,2.2762,2.2738,2.2782,2.2855,2.2865,2.2767,2.2766,2.2765,0,2.2242,2.2322,2.2383,2.2406,2.2464,2.2492,2.2517,2.2559,2.2589,2.2632,2.2652,2.27,2.2727,2.2764,2.2787,2.2769,2.2857,2.2838,2.287,2.287,2.2889,2.2888,2.2969,2.2904,2.2904,2.2904,2.2903,0,2.2309,2.236,2.2399,2.2436,2.2493,2.2516,2.2571,2.2597,2.2634,2.2675,2.2686,2.2724,2.2752,2.2794,2.2812,2.2869,2.2881,2.2894,2.2898,2.2894,2.2892,2.2912,2.2909,2.2906,2.2905,2.2905,2.2905,0,2.2358,2.2386,2.2453,2.2502,2.2516,2.2556,2.2598,2.2634,2.2656,2.2709,2.2722,2.2758,2.2808,2.2835,2.2897,2.2909,2.2973,2.2975,2.2959,2.2961,2.2993,2.299,2.309,2.3105,2.3029,2.3029,2.303,0,2.2399,2.2439,2.2493,2.2522,2.2548,2.2594,2.2625,2.265,2.2681,2.2733,2.2763,2.2813,2.2855,2.2935,2.2966,2.3013,2.3017,2.3048,2.3024,2.3018,2.3018,2.3016,2.302,2.3053,2.3054,2.3054,2.3055,0,2.247,2.2482,2.2527,2.2577,2.2614,2.2654,2.2693,2.2716,2.2746,2.2781,2.2833,2.2866,2.2929,2.298,2.3029,2.3055,2.306,2.3062,2.3072,2.3069,2.3059,2.3065,2.2972,2.306,2.306,2.3059,2.3059,2.3059,2.2518,2.2553,2.2597,2.2646,2.2678,2.2715,2.2751,2.2778,2.2822,2.2877,2.2888,2.2942,2.2983,2.3051,2.3078,2.312,2.3114,2.3128,2.3132,2.3136,2.3138,2.3051,2.3129,2.3129,2.3129,2.3129,2.3129,0,2.259,2.2618,2.2664,2.2719,2.2757,2.2759,2.2802,2.2834,2.2883,2.2921,2.2962,2.3021,2.3069,2.3104,2.3153,2.318,2.3184,2.3193,2.3191,2.3197,2.314,2.3127,2.3189,2.3189,2.3189,2.3189,2.3189,2.3189,2.2632,2.2692,2.2709,2.2785,2.2813,2.2867,2.2892,2.2925,2.2956,2.3022,2.3062,2.3084,2.3121,2.3173,2.3217,2.3225,2.3243,2.3252,2.3261,2.3207,2.3201,2.3195,2.3183,2.3255,2.3256,2.3315,2.3315,2.3316]}]]